Flight Track Log - Related Links

Times and Time Zones

All times are in EDT time to prevent confusion due to time zone crossing. See the SWA896 flight status page for this flight to view local times or setup timezone preferences in your user account.

Time Position Orientation Groundspeed Altitude Reporting Facility
EDT Latitude Longitude Course Direction KTS km/h feet Rate Location/Type
Fri 01:47:52 PM 36.0758 -115.1764 267° West 173 320 3.500  Level Los Angeles Center
Fri 01:48:29 PM 36.0742 -115.2194 267° West 208 385 4.300 1.568 Climbing Los Angeles Center
Fri 01:49:20 PM 36.0483 -115.2653 235° Southwest 244 452 5.800 2.496 Climbing Los Angeles Center
Fri 01:50:22 PM 35.9728 -115.3014 201° Southwest 282 523 9.000 3.242 Climbing Los Angeles Center
Fri 01:51:24 PM 35.8969 -115.3903 224° Southwest 302 560 12.500 2.855 Climbing Los Angeles Center
Fri 01:52:26 PM 35.8431 -115.4828 234° Southwest 329 610 14.900 2.371 Climbing Los Angeles Center
Fri 01:53:28 PM 35.8581 -115.6081 278° West 372 689 17.400 2.419 Climbing Los Angeles Center
Fri 01:54:30 PM 35.8722 -115.7489 277° West 386 715 19.900 2.304 Climbing Los Angeles Center
Fri 01:55:33 PM 35.8864 -115.8839 277° West 397 735 22.200 2.064 Climbing Los Angeles Center
Fri 01:56:35 PM 35.9253 -116.0072 291° West 398 737 24.200 1.790 Climbing Los Angeles Center
Fri 01:57:37 PM 36.0036 -116.1039 315° West 400 740 25.900 1.597 Climbing Los Angeles Center
Fri 01:58:39 PM 36.0853 -116.2067 315° West 409 758 27.500 1.512 Climbing Los Angeles Center
Fri 01:59:40 PM 36.1678 -116.3042 316° Northwest 413 764 29.000 1.742 Climbing Los Angeles Center
Fri 02:00:43 PM 36.2694 -116.4289 315° West 420 777 31.100 1.776 Climbing Los Angeles Center
Fri 02:01:45 PM 36.3525 -116.5319 315° West 424 785 32.700 1.403 Climbing Los Angeles Center
Fri 02:02:47 PM 36.4344 -116.6353 315° West 422 782 34.000 629 Climbing Los Angeles Center
Fri 02:03:49 PM 36.5175 -116.7361 316° Northwest 420 777 34.000  Level Los Angeles Center
Fri 02:04:51 PM 36.6014 -116.8439 314° West 419 776 34.000  Level Los Angeles Center
Fri 02:05:54 PM 36.6961 -116.9636 315° West 419 776 34.000  Level Los Angeles Center
Fri 02:06:56 PM 36.7772 -117.0650 315° West 416 771 34.000  Level Los Angeles Center
Fri 02:07:58 PM 36.8622 -117.1742 314° West 416 771 34.000  Level Los Angeles Center
Fri 02:08:45 PM 36.9269 -117.2606 313° West 418 774 34.000  Level Oakland Center
Fri 02:09:47 PM 37.0083 -117.3619 315° West 415 769 34.000  Level Oakland Center
Fri 02:10:48 PM 37.0911 -117.4681 314° West 420 777 34.000  Level Oakland Center
Fri 02:11:50 PM 37.1725 -117.5728 314° West 420 777 34.000  Level Oakland Center
Fri 02:12:51 PM 37.2547 -117.6783 314° West 421 779 34.000  Level Oakland Center
Fri 02:13:53 PM 37.3389 -117.7864 314° West 428 793 34.000  Level Oakland Center
Fri 02:14:54 PM 37.4203 -117.8922 314° West 421 779 34.000  Level Oakland Center
Fri 02:15:56 PM 37.5197 -118.0211 314° West 425 787 34.000  Level Oakland Center
Fri 02:16:57 PM 37.6017 -118.1317 313° West 428 793 34.000  Level Oakland Center
Fri 02:17:59 PM 37.6833 -118.2372 314° West 422 782 34.000  Level Oakland Center
Fri 02:19:01 PM 37.7658 -118.3453 314° West 424 785 34.000  Level Oakland Center
Fri 02:20:02 PM 37.8469 -118.4533 314° West 424 785 34.000  Level Oakland Center
Fri 02:21:04 PM 37.9278 -118.5597 314° West 420 777 34.000  Level Oakland Center
Fri 02:22:05 PM 38.0089 -118.6675 314° West 422 782 34.000  Level Oakland Center
Fri 02:23:07 PM 38.0894 -118.7747 314° West 420 777 34.000  Level Oakland Center
Fri 02:24:08 PM 38.1783 -118.8947 313° West 421 779 34.000  Level Oakland Center
Fri 02:25:10 PM 38.2578 -119.0031 313° West 419 776 34.000  Level Oakland Center
Fri 02:26:11 PM 38.3381 -119.1111 313° West 420 777 34.000  Level Oakland Center
Fri 02:27:13 PM 38.4197 -119.2206 314° West 423 784 34.000  Level Oakland Center
Fri 02:28:14 PM 38.5003 -119.3303 313° West 424 785 34.000 -780 Level Oakland Center
Fri 02:29:16 PM 38.5569 -119.4642 298° West 431 798 32.400 -1.756 Descending Oakland Center
Fri 02:30:17 PM 38.5964 -119.6003 290° West 413 764 30.400 -2.098 Descending Oakland Center
Fri 02:31:19 PM 38.6656 -119.7425 302° West 400 740 28.100 -2.049 Descending Oakland Center
Fri 02:32:20 PM 38.7297 -119.8331 312° West 379 702 26.200 -1.707 Descending Oakland Center
Fri 02:33:22 PM 38.7889 -119.9408 305° West 380 703 24.600 -1.610 Descending Oakland Center
Fri 02:34:23 PM 38.8133 -120.0658 284° West 365 676 22.900 -1.610 Descending Oakland Center
Fri 02:35:25 PM 38.8361 -120.1864 284° West 352 652 21.300 -2.000 Descending Oakland Center
Fri 02:36:26 PM 38.8500 -120.3325 277° West 349 647 18.800 -2.390 Descending Oakland Center
Fri 02:37:28 PM 38.8439 -120.4631 267° West 367 679 16.400 -2.390 Descending Oakland Center
Fri 02:38:29 PM 38.8389 -120.5958 267° West 374 692 13.900 -1.707 Descending Oakland Center
Fri 02:39:31 PM 38.8350 -120.7231 268° West 360 666 12.900 -1.210 Descending Oakland Center
Fri 02:40:33 PM 38.8297 -120.8386 267° West 330 612 11.400 -1.268 Descending Oakland Center
Fri 02:41:34 PM 38.8256 -120.9475 267° West 311 576 10.300 -1.171 Descending Oakland Center
Fri 02:42:36 PM 38.8322 -121.0497 275° West 294 544 9.000 -1.317 Descending Oakland Center
Fri 02:43:37 PM 38.8472 -121.1469 281° West 283 525 7.600 -1.512 Descending Oakland Center
Fri 02:44:39 PM 38.8481 -121.2653 271° West 279 517 5.900 -1.361 Descending Oakland Center
Fri 02:45:36 PM 38.8500 -121.3667 271° West 267 494 4.900 -974 Descending Northern Cal TRACON
Fri 02:46:36 PM 38.8500 -121.4500 270° West 247 457 4.000 -714 Descending Northern Cal TRACON
Fri 02:47:42 PM 38.8500 -121.5333 270° West 220 407 3.400 -800 Descending Northern Cal TRACON
Fri 02:48:36 PM 38.8167 -121.5833 229° Southwest 199 369 2.400 -1.158 Descending Northern Cal TRACON
Fri 02:49:36 PM 38.7667 -121.6000 195° South 171 317 1.200 -1.000 Descending Northern Cal TRACON
Fri 02:50:36 PM 38.7333 -121.6000 180° South 145 269 400 -800 Descending Northern Cal TRACON
Fri 02:52:00 PM 38.6954 -121.5908 218° Southwest  Level Estimated
Fri 02:59:00 PM 38.6954 -121.5908 218° Southwest  Level Estimated
Fri 03:00:00 PM 38.6954 -121.5908 218° Southwest  Level Estimated

Login

Don't have an account? Register now (free) for customized features, flight alerts, and more!